Suomi 100 (43804 NORAD) Tracking and Keplerian Element Data

This shows tracking and keplerian element data for the satellite.

Feedback or suggestion? Click here.




ElementValue
Catalog43804
NameSuomi 100
Epoch Orbit27914
Epoch Day12.70773544
Epoch Year2024
RAAN74.8776
Inclination97.5529
Eccentricity0.0018054
Argument of Perigee113.6868
Mean Anonmoly246.6255
Mean Motion15.03546486
Decay Rate9.193E-05
L11 43804U 18099AY 24012.70773544 .00009193 00000-0 67504-3 0 9999
L22 43804 97.5529 74.8776 0018054 113.6868 246.6255 15.03546486279143



Live tracking and technical data element details for Suomi 100 (NORAD 43804). Suomi 100 can be tracked NOW for your location showing map with azimuth and elevation plus other details from your city location.







IsCatalogInMostPopularTable: catalog: 43804, numindb: 1132
Update: records affected: 1



GetName: 43804 Suomi 100

Hit Count: updated at: Fri, 01 Mar 2024 10:08:44 GMT